Wind_Speed
31 33 35 38 40 40 40 41 49 55 60 66 67 69 68 66 70 72 70 69 67 63 59 54 53 52 46 41 42 40 40 40 40 39 37 34 36 36 39 40 38 37 38
36 37 39 38 40 45 45 38 37 45 56 62 65 67 68 68 67 70 72 71 71 67 63 60 56 56 50 47 48 46 44 43 43 42 41 37 39 39 41 42 41 42 42
37 35 39 40 41 37 31 30 30 33 39 50 63 65 68 70 71 70 74 74 73 72 68 64 60 58 55 51 50 50 46 42 42 42 45 44 40 43 42 41 41 44 44
24 30 32 34 33 31 28 29 27 30 33 37 43 56 62 66 68 70 68 74 75 72 72 66 61 61 57 54 54 52 48 45 42 43 43 46 44 43 43 45 43 47 47
20 26 28 28 25 27 23 22 22 22 29 36 40 45 49 61 68 72 73 71 75 75 71 67 64 66 63 58 57 55 49 46 47 46 45 44 46 47 47 45 48 49 48
25 16 18 15 14 14 17 19 22 24 28 33 43 50 52 51 57 69 75 74 73 56 68 70 70 56 59 59 57 58 52 49 51 53 54 49 48 47 48 48 50 49 51
13 10 3 5 8 14 19 22 25 29 24 24 24 39 50 52 51 53 68 76 74 74 63 59 74 52 64 60 58 59 49 46 55 60 53 49 49 54 54 59 49 53 52
12 7 2 5 9 10 11 14 23 25 19 17 17 28 37 43 41 44 52 63 74 75 80 78 70 66 63 61 60 51 59 57 56 55 50 44 52 55 51 55 63 57 54
13 10 9 11 13 19 20 14 20 19 19 18 19 24 33 37 36 33 41 45 62 68 72 71 66 61 52 62 56 53 56 55 45 44 54 55 53 58 62 58 52 59 61
8 10 6 12 15 17 21 17 16 14 12 8 15 17 26 37 38 31 40 45 50 62 67 66 61 58 64 62 63 59 63 54 61 52 54 56 56 62 61 60 57 62 65
6 8 8 11 10 14 18 13 14 19 11 12 6 11 13 29 33 33 35 42 45 57 58 60 65 67 58 56 58 60 56 56 57 53 51 56 67 61 59 65 59 53 59
3 7 7 7 8 13 19 14 17 11 7 6 8 5 9 12 17 24 31 32 39 53 49 47 43 52 56 58 56 56 59 59 56 56 61 61 61 61 50 46 50 49 39
4 3 7 8 9 12 13 15 15 9 14 10 6 3 8 11 8 14 12 25 34 41 45 49 42 43 47 49 52 53 60 58 57 58 63 62 50 43 38 35 36 35 35
6 6 7 10 9 11 10 10 12 4 10 9 6 8 4 7 5 15 23 27 31 30 32 36 43 45 52 53 54 54 51 57 58 58 56 41 38 37 38 38 36 35 36
8 9 7 8 11 11 11 10 9 12 9 5 9 3 4 4 10 14 18 18 17 22 24 27 32 37 45 45 50 42 44 46 43 39 33 35 39 28 27 26 25 27 28
16 14 15 13 13 15 15 14 11 9 10 10 8 4 6 5 8 16 19 18 23 28 32 26 27 40 43 49 42 33 29 28 31 35 34 25 18 24 29 31 31 33 35
18 17 16 16 18 18 18 18 18 16 12 10 9 2 5 10 12 14 16 14 17 25 32 30 24 27 30 27 24 21 21 14 12 15 18 24 29 31 34 35 35 29 26
27 19 7 15 18 18 22 25 23 23 21 16 10 7 7 3 5 19 16 13 17 19 24 13 11 9 9 9 10 15 21 22 23 27 29 31 32 26 18 21 24 26 27
17 19 20 20 20 21 22 22 21 19 23 26 18 8 4 2 2 4 2 3 6 7 11 11 13 15 17 21 24 27 29 29 26 22 18 17 19 20 24 26 29 31 33
11 11 12 12 13 14 15 17 20 24 22 20 24 17 11 9 10 10 9 11 15 17 19 21 20 20 20 18 16 15 14 15 16 18 20 21 24 26 28 31 31 34 38
11 12 10 8 9 10 12 14 16 19 25 16 11 15 16 17 13 12 12 10 9 8 9 10 8 8 8 10 11 11 14 18 20 22 25 25 27 30 32 35 38 42 45
19 18 16 15 13 13 14 15 15 14 14 14 13 8 4 4 4 3 2 3 4 5 7 8 9 10 12 14 16 18 21 24 26 27 29 30 32 35 38 41 44 46 49
24 24 24 24 22 21 18 16 15 14 13 10 5 2 3 4 4 5 6 9 11 12 14 16 18 19 20 22 25 26 28 31 32 34 37 38 39 41 43 46 49 52 54
27 28 28 27 27 26 25 23 21 19 17 16 15 15 14 14 15 16 17 20 21 21 23 24 25 26 28 29 31 33 35 37 39 41 43 44 45 47 49 51 54 56 59
28 28 29 31 31 31 31 30 28 26 25 24 23 23 24 24 25 27 28 28 30 31 32 34 35 36 37 39 41 43 44 46 46 47 48 49 50 52 54 57 60 62 65
27 27 30 32 33 32 34 35 35 34 32 32 31 30 31 31 31 32 33 36 37 39 40 42 43 45 47 48 50 51 52 52 52 52 51 53 55 57 60 63 65 67 70
Wind_Direction
264 264 267 269 271 268 258 251 248 247 244 242 242 241 240 237 237 239 238 239 240 238 240 240 242 244 241 244 249 247 250 253 266 262 264 263 266 272 277 273 273 273 274
263 266 271 271 274 272 275 273 261 252 244 243 242 241 238 235 235 235 237 236 238 239 238 240 241 244 243 244 249 250 255 261 267 265 264 264 263 268 270 273 276 279 278
269 268 271 275 272 275 268 258 256 253 255 249 243 240 239 236 234 233 233 234 234 236 237 237 241 243 244 245 247 248 251 257 262 264 268 268 268 266 269 271 274 276 279
274 274 275 271 274 273 269 269 257 249 255 255 250 244 240 237 235 234 235 234 235 235 236 236 238 241 243 244 246 249 249 252 258 264 267 269 267 264 266 269 273 276 275
278 284 277 274 263 267 272 268 264 265 266 264 254 250 244 238 234 231 229 232 234 234 235 235 238 239 241 241 245 249 251 253 254 262 265 267 272 269 267 267 269 274 273
294 299 269 260 256 261 284 273 254 252 286 271 258 245 241 237 233 230 228 227 229 227 236 237 236 230 233 239 241 249 250 250 255 258 268 270 274 276 269 271 274 271 271
320 320 244 212 304 293 280 271 254 279 281 288 268 242 235 230 231 232 230 224 225 226 224 223 229 230 238 237 242 247 249 253 260 264 264 264 272 273 279 268 272 278 282
8 348 281 316 312 337 321 297 278 282 291 289 260 238 228 229 227 233 233 231 223 223 222 234 232 231 233 237 237 246 248 247 254 257 260 265 270 272 273 277 278 280 281
1 6 316 302 305 321 326 315 322 296 289 278 270 245 228 215 221 235 236 232 226 222 222 225 230 231 228 234 235 238 249 250 257 256 263 266 265 271 275 271 271 273 276
4 341 323 302 322 326 329 320 341 320 269 287 262 259 243 226 227 228 229 221 223 223 221 223 222 227 230 233 237 241 245 253 256 263 267 271 270 274 273 270 272 271 272
337 338 330 334 320 331 345 330 311 332 283 302 279 216 221 221 227 227 225 209 210 221 220 223 226 230 234 237 240 243 248 253 256 263 271 270 271 274 273 272 271 270 272
315 325 315 329 325 315 338 7 349 6 342 326 31 22 336 183 178 200 195 193 202 218 223 223 230 232 233 235 240 245 250 253 254 259 267 273 268 269 269 269 269 267 266
257 277 308 300 307 312 330 346 343 353 32 12 7 333 329 103 137 170 217 193 212 215 223 229 240 232 233 239 239 238 247 248 252 259 265 272 263 267 266 264 267 270 273
233 246 256 291 305 306 322 352 15 351 329 351 19 88 71 117 126 179 183 210 210 211 217 225 230 232 230 234 240 247 253 253 256 258 263 256 259 260 268 272 273 273 274
250 260 267 284 304 305 311 316 337 356 9 229 303 100 129 128 185 187 181 192 201 212 224 231 233 238 238 239 243 244 240 241 239 240 248 258 258 267 283 286 282 280 277
275 276 279 280 292 317 321 308 313 325 338 360 36 268 224 187 178 170 202 206 206 220 228 215 231 229 239 234 239 236 231 237 244 252 255 249 272 266 264 266 267 268 267
261 270 275 282 291 299 303 305 309 313 315 311 323 13 124 203 221 209 204 225 219 229 224 222 233 242 231 231 226 245 259 267 279 270 262 254 253 259 267 274 280 287 289
53 47 330 277 273 282 289 292 292 290 291 292 295 292 319 354 141 203 205 201 219 233 231 215 217 255 288 291 260 245 244 247 253 261 264 269 273 274 271 278 289 294 296
45 43 45 52 53 53 50 43 30 349 292 270 267 262 220 222 211 169 320 304 258 280 272 261 238 234 242 239 239 242 247 257 263 264 263 264 268 276 280 281 283 287 290
3 20 31 31 27 26 26 23 20 12 354 252 235 247 263 278 282 275 263 253 259 256 255 258 258 257 255 243 234 229 229 239 250 256 263 270 272 276 281 288 294 295 298
307 317 328 342 351 355 356 0 9 19 28 32 216 228 252 274 278 265 257 245 230 217 196 202 206 210 220 233 244 255 261 266 270 271 274 278 284 287 290 292 296 295 298
294 293 296 298 301 309 318 327 338 354 20 50 66 92 128 161 149 168 217 255 253 251 258 260 261 256 257 261 264 266 268 270 272 275 277 281 284 288 291 293 293 295 297
285 285 287 289 291 292 296 297 301 311 320 332 342 329 269 269 273 271 273 275 274 273 272 270 269 271 275 277 277 279 283 285 287 288 288 288 290 292 293 294 295 296 298
285 286 282 279 281 284 286 288 288 285 286 288 289 288 284 281 281 281 277 275 275 278 278 279 281 281 282 284 287 288 288 290 291 290 289 288 288 289 292 294 295 297 299
279 277 284 286 283 280 279 280 280 280 280 279 277 275 275 275 277 278 279 280 281 282 282 282 282 284 284 285 286 287 288 288 289 289 289 288 288 290 292 293 294 295 298
287 288 280 276 279 282 282 281 279 277 276 275 275 276 277 277 277 276 277 278 279 280 281 282 282 283 283 284 285 285 286 285 285 286 286 286 287 288 290 291 293 295 298
Height
5694 5694 5692 5690 5688 5687 5688 5690 5691 5693 5698 5703 5710 5719 5729 5737 5742 5750 5759 5766 5771 5779 5784 5791 5795 5799 5806 5811 5812 5816 5818 5822 5824 5825 5827 5830 5829 5831 5833 5831 5832 5832 5832
5688 5686 5683 5681 5679 5677 5676 5679 5680 5681 5685 5689 5696 5701 5710 5719 5727 5736 5743 5752 5758 5767 5774 5779 5786 5790 5796 5801 5803 5807 5811 5814 5815 5818 5818 5821 5824 5825 5824 5824 5824 5824 5824
5679 5676 5674 5671 5667 5667 5668 5668 5669 5671 5674 5676 5679 5686 5692 5702 5711 5719 5726 5734 5743 5751 5759 5768 5774 5781 5787 5791 5793 5796 5801 5806 5806 5808 5811 5812 5816 5815 5816 5816 5816 5815 5816
5670 5668 5665 5661 5658 5657 5658 5659 5661 5662 5664 5665 5668 5671 5679 5687 5698 5707 5716 5722 5729 5739 5748 5757 5764 5769 5775 5781 5784 5787 5792 5795 5799 5798 5802 5802 5804 5806 5808 5808 5808 5807 5807
5663 5660 5656 5655 5653 5653 5653 5653 5654 5656 5656 5656 5656 5658 5664 5672 5679 5687 5696 5705 5714 5725 5735 5746 5754 5754 5762 5769 5774 5777 5784 5787 5790 5789 5791 5792 5791 5795 5797 5799 5799 5797 5797
5656 5652 5650 5649 5649 5649 5647 5647 5647 5647 5646 5642 5640 5642 5648 5654 5660 5669 5678 5690 5700 5721 5727 5736 5741 5725 5749 5757 5763 5767 5774 5778 5779 5779 5783 5783 5782 5784 5785 5785 5786 5788 5788
5652 5647 5646 5647 5647 5645 5644 5641 5640 5640 5636 5631 5625 5625 5630 5638 5647 5655 5663 5673 5685 5699 5714 5700 5723 5727 5739 5747 5753 5757 5764 5766 5768 5771 5771 5773 5773 5774 5774 5773 5772 5774 5775
5648 5646 5646 5645 5644 5643 5640 5639 5637 5632 5627 5623 5617 5615 5618 5627 5635 5642 5649 5658 5669 5683 5697 5702 5712 5723 5730 5736 5743 5748 5752 5756 5760 5761 5763 5762 5764 5764 5764 5764 5762 5763 5763
5647 5646 5645 5644 5642 5640 5639 5634 5630 5624 5622 5616 5612 5611 5613 5617 5625 5632 5639 5648 5658 5669 5681 5693 5704 5713 5720 5725 5733 5739 5740 5746 5747 5743 5751 5753 5752 5755 5752 5751 5750 5750 5750
5647 5645 5643 5643 5642 5639 5635 5632 5626 5621 5614 5611 5608 5608 5609 5613 5619 5621 5626 5636 5649 5661 5672 5684 5696 5691 5709 5717 5722 5728 5732 5737 5738 5738 5741 5742 5742 5742 5740 5739 5738 5736 5736
5646 5644 5643 5643 5640 5637 5635 5631 5627 5620 5614 5612 5608 5606 5606 5606 5611 5615 5622 5627 5639 5656 5665 5677 5685 5693 5702 5709 5715 5720 5724 5726 5727 5729 5730 5730 5730 5727 5726 5725 5725 5723 5723
5645 5643 5642 5641 5639 5637 5634 5631 5627 5621 5615 5612 5609 5607 5606 5605 5608 5611 5619 5629 5637 5650 5662 5672 5678 5686 5694 5700 5706 5711 5714 5716 5717 5719 5719 5719 5717 5715 5714 5713 5712 5712 5711
5644 5642 5642 5641 5639 5637 5635 5632 5626 5622 5617 5614 5612 5610 5610 5613 5614 5616 5618 5621 5639 5648 5659 5668 5675 5680 5686 5690 5694 5699 5701 5703 5706 5708 5709 5707 5706 5705 5704 5703 5703 5701 5700
5642 5642 5641 5640 5639 5637 5635 5633 5630 5626 5621 5619 5617 5615 5617 5620 5623 5625 5630 5632 5637 5646 5654 5661 5667 5671 5675 5680 5683 5687 5690 5691 5693 5696 5697 5695 5696 5695 5695 5694 5694 5692 5692
5641 5640 5639 5639 5638 5637 5635 5634 5632 5629 5626 5622 5621 5621 5622 5623 5626 5628 5631 5635 5640 5645 5650 5655 5658 5663 5667 5671 5674 5675 5676 5678 5680 5683 5683 5684 5686 5685 5685 5686 5684 5684 5684
5642 5641 5640 5638 5637 5636 5635 5633 5632 5631 5629 5626 5624 5623 5623 5624 5626 5628 5632 5635 5639 5643 5645 5647 5652 5654 5657 5660 5665 5666 5667 5668 5669 5671 5672 5674 5675 5676 5677 5677 5675 5674 5674
5638 5638 5638 5637 5636 5635 5634 5633 5631 5629 5629 5628 5627 5626 5625 5625 5628 5630 5632 5634 5636 5639 5639 5643 5647 5650 5652 5655 5656 5656 5659 5660 5662 5664 5665 5666 5666 5666 5668 5668 5667 5665 5664
5639 5636 5634 5633 5633 5632 5632 5631 5629 5628 5626 5626 5627 5626 5625 5625 5625 5628 5630 5631 5634 5636 5638 5636 5639 5641 5644 5646 5651 5652 5654 5655 5655 5656 5657 5658 5658 5658 5658 5658 5657 5655 5653
5644 5641 5638 5636 5634 5633 5632 5630 5627 5624 5620 5621 5623 5625 5625 5625 5625 5627 5629 5631 5634 5635 5636 5637 5639 5640 5642 5643 5645 5648 5650 5650 5648 5649 5648 5649 5650 5649 5650 5648 5648 5647 5644
5646 5644 5641 5639 5637 5634 5632 5630 5626 5623 5614 5610 5615 5621 5624 5625 5625 5625 5625 5627 5628 5630 5630 5631 5632 5632 5635 5636 5638 5640 5641 5642 5642 5643 5643 5642 5642 5641 5640 5640 5636 5636 5635
5646 5644 5642 5640 5638 5635 5633 5630 5627 5623 5617 5609 5612 5618 5621 5622 5621 5621 5622 5623 5624 5626 5627 5628 5628 5630 5631 5632 5632 5632 5633 5635 5635 5635 5635 5633 5631 5630 5629 5628 5625 5625 5621
5642 5641 5639 5638 5636 5634 5632 5630 5628 5626 5623 5620 5619 5620 5622 5622 5622 5622 5623 5624 5624 5625 5626 5626 5627 5628 5629 5628 5628 5628 5629 5630 5629 5627 5625 5623 5621 5618 5616 5614 5613 5610 5606
5636 5635 5634 5633 5632 5630 5629 5628 5627 5625 5624 5623 5623 5623 5623 5623 5623 5623 5622 5624 5624 5624 5624 5624 5624 5624 5623 5622 5622 5621 5620 5620 5617 5615 5612 5610 5607 5604 5602 5600 5597 5594 5589
5629 5627 5627 5626 5625 5624 5623 5622 5622 5621 5621 5621 5620 5620 5620 5619 5619 5619 5619 5620 5619 5619 5618 5617 5617 5616 5615 5613 5612 5610 5608 5606 5604 5603 5600 5597 5593 5591 5588 5585 5580 5575 5571
5620 5619 5619 5618 5618 5617 5615 5615 5615 5615 5615 5614 5614 5614 5614 5614 5613 5613 5612 5612 5610 5610 5608 5607 5606 5605 5604 5602 5600 5598 5595 5593 5591 5588 5585 5581 5578 5574 5570 5567 5563 5558 5553
5612 5611 5609 5608 5608 5608 5608 5607 5607 5606 5606 5605 5605 5605 5604 5604 5604 5603 5603 5602 5600 5599 5597 5596 5594 5592 5590 5588 5585 5582 5580 5578 5575 5572 5568 5565 5562 5558 5555 5550 5545 5539 5534